sat.trackr.live / text

‹ back to catalog

2025-274G

NORAD 66656 · 2025-274G

PAYLOAD ACTIVE UNKNOWN

§ Identity

Operator
Country
SKOR
Launch date
2025-11-26
Launch site
NSC
Launch vehicle
Mass (kg)
RCS (m²)

External: N2YO · Heavens-Above · Gunter

§ Orbital elements

Epoch: 2026-05-24T18:13:48.898272Z

Period
96.43 min
Inclination
97.7482°
Eccentricity
0.0015422
Mean motion
14.93258433 rev/d
Perigee alt
577.0 km
Apogee alt
598.5 km
Semi-major
6,965.9 km
B*
1.8989e-4
RAAN
74.3441°
Arg perigee
77.1307°
Mean anomaly
283.1635°
Rev number
2,672

§ Raw data

2025-274G1 66656U 25274G   26144.75959373  .00001934  00000+0  18989-3 0  99982 66656  97.7482  74.3441 0015422  77.1307 283.1635 14.93258433 26727

JSON: /api/v1/satellites/66656 · /tle

For live sub-satellite position, see the globe view (requires WebGL).

§ Visibility from observer

Set your observer location to see the next 7 days of passes ≥ 10°. The values pass through the URL so the page stays shareable.

No JS? Fill the form by hand. The geolocation button needs JavaScript.